{"data":{"norad_id":49217,"epoch":"2026-05-25T02:29:15.488736Z","epoch_age_seconds":63120,"freshness":"FRESH","line1":"1 49217U 21083AH  26145.10365149  .00000008  00000+0 -12957-4 0  9990","line2":"2 49217  87.9176 279.0404 0002134 109.3226 250.8138 13.20771669233762","mean_motion":13.20771669,"eccentricity":0.0002134,"inclination_deg":87.9176,"raan_deg":279.0404,"arg_perigee_deg":109.3226,"mean_anomaly_deg":250.8138,"bstar":-1.2957e-5,"rev_number":23376,"period_min":109.02717205392,"perigee_km":1180.1606369778,"apogee_km":1183.3872069593,"semimajor_km":7559.9109219686,"source":"CELESTRAK","updated_at":"2026-05-25T13:38:22.518311Z"}}